Terug naar catalogus

HAWK-12C

ActiefMilitairSSO
NORAD 64621·PAYLOAD·🇺🇸 United States

Gelanceerd Jun 26, 2025 vanaf Rocket Lab Launch Complex 1

Loading…

Volgende Passages (komende 24 uur)

TLE

VersSource: Space-Track

Epoch: Sep 14, 2026, 11:07 UTC

1 64621U 25138A   26257.46351743  .00002828  00000-0  13906-3 0  9995
2 64621  97.4393 258.4480 0013561 184.6072 175.5040 15.18771750 67413

Volg HAWK-12C in realtime met AllMySat

Download on the App Store